Weather History for Superior, WI

Change the Weather History Date:

Wednesday, January 23, 2013

  Actual Average Record
Temperature  
Mean Temperature -1 °F -  
Max Temperature 9 °F 22 °F 47 °F (1981)
Min Temperature -11 °F 3 °F -28 °F (1963)
Degree Days  
Heating Degree Days 66    
Moisture  
Dew Point -11 °F    
Average Humidity 64    
Maximum Humidity 81    
Minimum Humidity 46    
Precipitation  
Precipitation 0.00 in - - ()
Sea Level Pressure  
Sea Level Pressure 30.29 in    
Wind  
Wind Speed 9 mph (WNW)    
Max Wind Speed 26 mph    
Max Gust Speed 32 mph    
Visibility 10 miles    
Events      
Averages and records for this station are not official NWS values.
T = Trace of Precipitation, MM = Missing Value Source: NWS Daily Summary

Daily Weather History Graph

Daily Weather History Graph

Search for Another Location

Airport:

Trip Planner

Search our weather history database for the weather conditions in past years. The results will help you decide how hot, cold, wet, or windy it might be!

Date:

Astronomy

Jan. 23, 2013 Rise Set
Actual Time 7:42 AM CST 4:59 PM CST
Civil Twilight 7:08 AM CST 5:32 PM CST
Nautical Twilight 6:31 AM CST 6:09 PM CST
Astronomical Twilight 5:56 AM CST 6:45 PM CST
Moon 2:06 PM CST (1/23) 4:56 AM CST (1/23)
Length of Visible Light 10h 23m
Length of Day
9h 17m
Waxing Gibbous, 89% of the Moon is Illuminated
Jan 23
Waxing Gibbous
Jan 26
Full
Feb 3
Last Quarter
Feb 10
New
Feb 17
First Quarter

Hourly Weather History & Observations

Time (CST) Temp. Windchill Dew Point Humidity Pressure Visibility Wind Dir Wind Speed Gust Speed Precip Events Conditions
12:15 AM -4.0 °F -19.0 °F -11.7 °F 69% 30.19 in 10.0 mi SW 8.1 mph - N/A   Overcast
12:35 AM -4.0 °F -19.0 °F -11.4 °F 71% 30.19 in 10.0 mi SW 8.1 mph - N/A   Overcast
12:55 AM -3.6 °F -14.1 °F -10.8 °F 71% 30.19 in 10.0 mi SW 4.6 mph - N/A   Overcast
1:15 AM -3.3 °F -15.4 °F -10.7 °F 71% 30.19 in 10.0 mi SW 5.8 mph - N/A   Overcast
1:35 AM -3.3 °F -18.2 °F -10.7 °F 71% 30.18 in 10.0 mi SW 8.1 mph - N/A   Overcast
1:55 AM -3.3 °F -16.9 °F -10.7 °F 71% 30.18 in 10.0 mi SW 6.9 mph - N/A   Overcast
2:15 AM -3.5 °F -15.7 °F -10.7 °F 71% 30.19 in 10.0 mi SW 5.8 mph - N/A   Overcast
2:35 AM -3.5 °F -15.7 °F -10.5 °F 72% 30.18 in 10.0 mi SW 5.8 mph - N/A   Overcast
2:55 AM -3.1 °F -13.5 °F -10.3 °F 71% 30.19 in 10.0 mi SW 4.6 mph - N/A   Overcast
3:15 AM -3.1 °F - -10.3 °F 71% 30.19 in 10.0 mi Calm Calm - N/A   Overcast
3:35 AM -3.1 °F -11.4 °F -9.8 °F 73% 30.18 in 10.0 mi SW 3.5 mph - N/A   Overcast
3:55 AM -2.7 °F -11.0 °F -9.6 °F 73% 30.17 in 10.0 mi SW 3.5 mph - N/A   Overcast
4:15 AM -2.6 °F -12.9 °F -9.4 °F 73% 30.16 in 10.0 mi SW 4.6 mph - N/A   Overcast
4:35 AM -2.2 °F -14.2 °F -8.5 °F 75% 30.16 in 10.0 mi SW 5.8 mph - N/A   Overcast
4:55 AM -2.2 °F -16.8 °F -8.5 °F 75% 30.15 in 10.0 mi SW 8.1 mph - N/A   Overcast
5:15 AM -1.8 °F -15.2 °F -7.8 °F 76% 30.15 in 7.0 mi WSW 6.9 mph - N/A   Overcast
5:35 AM -1.7 °F -14.9 °F -7.6 °F 76% 30.14 in 7.0 mi WSW 6.9 mph - N/A   Overcast
5:55 AM -1.7 °F -14.9 °F -6.9 °F 78% 30.14 in 7.0 mi WSW 6.9 mph - N/A   Overcast
6:15 AM -1.7 °F -14.9 °F -6.7 °F 79% 30.13 in 5.0 mi WSW 6.9 mph - N/A   Haze
6:35 AM -1.3 °F -15.7 °F -6.0 °F 81% 30.12 in 10.0 mi SW 8.1 mph - N/A   Overcast
6:55 AM -0.8 °F -13.9 °F -5.8 °F 79% 30.12 in 7.0 mi SW 6.9 mph - N/A   Overcast
7:15 AM -0.4 °F -12.0 °F -5.4 °F 79% 30.12 in 10.0 mi WSW 5.8 mph - N/A   Overcast
7:35 AM -0.0 °F -14.2 °F -5.3 °F 79% 30.11 in 10.0 mi WSW 8.1 mph - N/A   Overcast
7:55 AM -0.0 °F -11.6 °F -5.1 °F 79% 30.11 in 7.0 mi SW 5.8 mph - N/A   Overcast
8:15 AM -0.0 °F -13.0 °F -4.9 °F 80% 30.11 in 10.0 mi SW 6.9 mph - N/A   Overcast
8:35 AM 0.3 °F -14.8 °F -4.9 °F 79% 30.11 in 10.0 mi SW 9.2 mph - N/A   Overcast
8:55 AM 1.0 °F -12.9 °F -4.4 °F 78% 30.11 in 7.0 mi SW 8.1 mph - N/A   Overcast
9:15 AM 1.8 °F -12.0 °F -4.0 °F 77% 30.11 in 7.0 mi SW 8.1 mph - N/A   Overcast
9:35 AM 2.3 °F -10.2 °F -3.3 °F 77% 30.11 in 10.0 mi SW 6.9 mph - N/A   Overcast
9:55 AM 3.7 °F -10.6 °F -2.7 °F 74% 30.11 in 10.0 mi WSW 9.2 mph - N/A   Mostly Cloudy
10:15 AM 5.7 °F -6.1 °F -1.8 °F 71% 30.12 in 10.0 mi WSW 6.9 mph - N/A   Scattered Clouds
10:35 AM 7.7 °F -8.2 °F -1.3 °F 67% 30.12 in 10.0 mi NW 12.7 mph 17.3 mph N/A   Mostly Cloudy
10:55 AM 9.0 °F -7.3 °F -1.5 °F 63% 30.13 in 10.0 mi NW 13.8 mph 23.0 mph N/A   Overcast
11:15 AM 9.0 °F -8.5 °F -2.0 °F 61% 30.13 in 10.0 mi NW 16.1 mph 21.9 mph N/A   Overcast
11:35 AM 9.3 °F -7.4 °F -2.4 °F 59% 30.13 in 10.0 mi NW 15.0 mph 19.6 mph N/A   Overcast
11:55 AM 9.0 °F -9.5 °F -3.5 °F 57% 30.14 in 10.0 mi NW 18.4 mph 25.3 mph N/A   Overcast
12:15 PM 8.1 °F -10.7 °F -4.2 °F 58% 30.14 in 10.0 mi NW 18.4 mph 24.2 mph N/A   Overcast
12:35 PM 8.2 °F -11.5 °F -4.9 °F 55% 30.16 in 10.0 mi NW 20.7 mph 25.3 mph N/A   Overcast
12:55 PM 6.4 °F -12.3 °F -7.6 °F 53% 30.17 in 10.0 mi NW 17.3 mph 29.9 mph N/A   Overcast
1:15 PM 6.1 °F -12.8 °F -7.4 °F 54% 30.18 in 10.0 mi NW 17.3 mph 25.3 mph N/A   Mostly Cloudy
1:35 PM 4.8 °F -17.3 °F -10.7 °F 49% 30.20 in 10.0 mi NNW 24.2 mph 32.2 mph N/A   Mostly Cloudy
1:55 PM 3.9 °F -19.4 °F -11.9 °F 48% 30.23 in 10.0 mi NW 26.5 mph 31.1 mph N/A   Mostly Cloudy
2:15 PM 2.8 °F -18.6 °F -11.4 °F 52% 30.25 in 10.0 mi North 20.7 mph 26.5 mph N/A   Overcast
2:35 PM 1.2 °F -22.1 °F -15.2 °F 46% 30.27 in 10.0 mi NNW 24.2 mph 29.9 mph N/A   Overcast
2:55 PM 1.0 °F -20.9 °F -14.4 °F 48% 30.29 in 10.0 mi NNW 20.7 mph 28.8 mph N/A   Mostly Cloudy
3:15 PM -0.0 °F -23.3 °F -15.7 °F 48% 30.32 in 10.0 mi NW 23.0 mph 28.8 mph N/A   Mostly Cloudy
3:35 PM -0.0 °F -21.3 °F -15.0 °F 49% 30.34 in 10.0 mi NW 18.4 mph 24.2 mph N/A   Mostly Cloudy
3:55 PM -0.2 °F -16.5 °F -15.0 °F 50% 30.36 in 10.0 mi North 10.4 mph 16.1 mph N/A   Mostly Cloudy
4:15 PM -1.3 °F -17.8 °F -15.9 °F 50% 30.38 in 10.0 mi North 10.4 mph - N/A   Mostly Cloudy
4:35 PM -1.5 °F -20.5 °F -17.0 °F 48% 30.40 in 10.0 mi NNW 13.8 mph 19.6 mph N/A   Scattered Clouds
4:55 PM -2.6 °F -20.3 °F -16.6 °F 51% 30.41 in 10.0 mi North 11.5 mph 19.6 mph N/A   Scattered Clouds
5:15 PM -2.9 °F -23.8 °F -16.6 °F 52% 30.42 in 10.0 mi NNW 16.1 mph 19.6 mph N/A   Mostly Cloudy
5:35 PM -3.5 °F -23.1 °F -15.9 °F 55% 30.45 in 10.0 mi NNW 13.8 mph - N/A   Scattered Clouds
5:55 PM -4.0 °F -23.7 °F -16.6 °F 55% 30.46 in 10.0 mi NNW 13.8 mph - N/A   Clear
6:15 PM -4.5 °F -23.6 °F -16.6 °F 56% 30.48 in 10.0 mi NNW 12.7 mph - N/A   Clear
6:35 PM -4.5 °F -22.8 °F -17.5 °F 54% 30.50 in 10.0 mi NNW 11.5 mph 20.7 mph N/A   Clear
6:55 PM -5.1 °F -22.5 °F -17.9 °F 54% 30.51 in 10.0 mi North 10.4 mph 18.4 mph N/A   Clear
7:15 PM -5.4 °F -23.9 °F -17.9 °F 55% 30.52 in 10.0 mi NNW 11.5 mph - N/A   Clear
7:35 PM -5.8 °F -23.4 °F -18.4 °F 55% 30.52 in 10.0 mi North 10.4 mph 17.3 mph N/A   Clear
7:55 PM -6.2 °F -22.8 °F -18.6 °F 55% 30.53 in 10.0 mi North 9.2 mph - N/A   Clear
8:15 PM -6.7 °F -23.5 °F -18.8 °F 56% 30.54 in 10.0 mi North 9.2 mph - N/A   Clear
8:35 PM -7.1 °F -19.9 °F -19.1 °F 56% 30.55 in 10.0 mi North 5.8 mph - N/A   Clear
8:55 PM -8.0 °F -22.5 °F -19.1 °F 58% 30.55 in 10.0 mi North 6.9 mph - N/A   Clear
9:15 PM -8.0 °F -21.0 °F -19.3 °F 58% 30.55 in 10.0 mi North 5.8 mph - N/A   Clear
9:35 PM -8.5 °F -21.6 °F -19.3 °F 59% 30.55 in 10.0 mi NNW 5.8 mph - N/A   Clear
9:55 PM -8.5 °F -24.5 °F -18.9 °F 60% 30.59 in 10.0 mi NNW 8.1 mph - N/A   Clear
10:15 PM -10.3 °F -23.8 °F -19.8 °F 63% 30.60 in 10.0 mi NW 5.8 mph - N/A   Clear
10:35 PM -10.5 °F -26.9 °F -19.8 °F 63% 30.60 in 10.0 mi North 8.1 mph - N/A   Clear
10:55 PM -10.1 °F -23.6 °F -20.0 °F 62% 30.61 in 10.0 mi North 5.8 mph - N/A   Clear
11:15 PM -11.4 °F -23.2 °F -20.6 °F 64% 30.62 in 10.0 mi NNW 4.6 mph - N/A   Clear
11:35 PM -11.9 °F -25.7 °F -20.9 °F 64% 30.63 in 10.0 mi NNW 5.8 mph - N/A   Clear
11:55 PM -11.9 °F -25.7 °F -21.1 °F 64% 30.64 in 10.0 mi NNW 5.8 mph - N/A   Clear